Hourly Data Report for December 26, 2003

TORONTO CITY
ONTARIO

43°40'00.000" N
79°24'00.000" W
112.50 m
6158355
71508
XTO

Download Data

Hourly Data (December 2003)
Hourly Data Report for December 26, 2003
TIME
LST
Temp Definition
°C
Dew Point Definition
°C
Rel Hum Definition
%
Precip. Amount Definition
mm

Wind Dir Definition
10's deg

Wind Spd Definition
km/h
Visibility Definition
km
Stn Press Definition
kPa
Hmdx Definition


Wind Chill Definition


Weather Definition


00:00 1.1 -3.9 69   LegendMM LegendMM LegendMM 100.22     LegendNANA
01:00 0.4 -4.3 71   LegendMM LegendMM LegendMM 100.21     LegendNANA
02:00 0.3 -3.4 76   LegendMM LegendMM LegendMM 100.23     LegendNANA
03:00 0.4 -3.2 77   LegendMM LegendMM LegendMM 100.26     LegendNANA
04:00 0.5 -2.5 80   LegendMM LegendMM LegendMM 100.28     LegendNANA
05:00 0.1 -2.8 81   LegendMM LegendMM LegendMM 100.32     LegendNANA
06:00 0.0 -3.8 76   LegendMM LegendMM LegendMM 100.44     LegendNANA
07:00 -0.5 -4.6 74   LegendMM LegendMM LegendMM 100.52     LegendNANA
08:00 -1.1 -4.9 75   LegendMM LegendMM LegendMM 100.63     LegendNANA
09:00 -0.3 -5.4 68   LegendMM LegendMM LegendMM 100.69     LegendNANA
10:00 1.7 -7.3 51   LegendMM LegendMM LegendMM 100.68     LegendNANA
11:00 4.1 -6.3 47   LegendMM LegendMM LegendMM 100.67     LegendNANA
12:00 5.8 -3.6 51   LegendMM LegendMM LegendMM 100.59     LegendNANA
13:00 7.0 -2.6 50   LegendMM LegendMM LegendMM 100.54     LegendNANA
14:00 6.2 -1.5 58   LegendMM LegendMM LegendMM 100.56     LegendNANA
15:00 6.0 -1.0 61   LegendMM LegendMM LegendMM 100.64     LegendNANA
16:00 5.0 -1.2 64   LegendMM LegendMM LegendMM 100.70     LegendNANA
17:00 4.1 -1.2 68   LegendMM LegendMM LegendMM 100.72     LegendNANA
18:00 3.2 -1.7 70   LegendMM LegendMM LegendMM 100.80     LegendNANA
19:00 2.8 -1.7 72   LegendMM LegendMM LegendMM 100.86     LegendNANA
20:00 2.4 -1.8 74   LegendMM LegendMM LegendMM 100.92     LegendNANA
21:00 2.4 -1.7 74   LegendMM LegendMM LegendMM 100.95     LegendNANA
22:00 2.1 -0.8 81   LegendMM LegendMM LegendMM 100.99     LegendNANA
23:00 2.3 -0.3 83   LegendMM LegendMM LegendMM 101.00     LegendNANA

Notes on Data Quality.

Legend

  • E = Estimated
  • M = Missing
  • NA = Not Available*
  • [empty] = Indicates an unobserved value
Date modified: